Other Public Products
Issued by NWS Charleston, SC

Current Version | Previous Version | Text Only | Print | Product List | Glossary Off
Versions: 1 2 3 4 5 6 7 8 9 10 11 12 13 14 15 16 17 18 19 20 21 22 23 24 25 26 27 28 29 30 31 32 33 34 35 36 37 38 39 40 41 42 43 44 45 46 47 48 49 50
000 FPUS82 KCHS 240527 OPUCHS TEST...KCHS/KSAV Gateway Observations...TEST National Weather Service Charleston SC 1200 AM EST SAT FEB 24 2018 NOTE: "fair" indicates few or no clouds below 12,000 feet with no significant weather and/or obstructions to visibility. SCZ050-WAZ558-NCZ071-TXZ119-213-PAZ071-DCZ001-FLZ074-172-MI076- NYZ176-178-MAZ016-IL014-TNZ027-NJZ106-GAZ044-MD014-240600- ...Gateway Observations for Charleston International... CITY SKY/WX TMP DP RH WIND PRES REMARKS Chas Airport FAIR 63 63 100 S5 30.31F Seattle CLOUDY 35 32 88 S12 30.13F WCI 27 Charlotte FAIR 61 55 81 CALM 30.28F Dallas DFW CLOUDY 47 45 93 NW6 30.02F Dallas Love CLOUDY 48 47 96 NW6 30.03F FOG Philladelphia CLOUDY 44 43 96 SW13 30.23S Wash National CLOUDY 48 48 100 S5 30.25F FOG Baltimore DRZL/FOG 43 43 100 CALM 30.24F VSB 1/2 Miami LGT RAIN 73 69 87 E14G22 30.24F Detroit CLOUDY 41 35 79 NW13 30.23R Newark CLOUDY 41 40 96 SW10 30.18F FOG Laguardia MOCLDY 44 40 85 W12 30.16F J F K CLOUDY 40 40 100 SW9 30.18F WCI 34 Boston Logan CLOUDY 37 36 96 SW13 30.07F WCI 29 Ft. Lauderdale LGT RAIN 72 71 97 E13G28 30.24F Chicago O`Hare CLOUDY 34 28 79 CALM 30.26S Chicago Midway CLOUDY 36 30 79 NW8 30.26F WCI 30 Houston Bush CLOUDY 72 70 93 SE8 30.03F Houston Hobby CLOUDY 73 72 96 S9 30.04S Nashville CLOUDY 62 59 90 N8 30.18R Atlanta FAIR 66 59 78 SE6 30.26S $$ GAZ044-118-TXZ119-213-NCZ071-DCZ001-MDZ014-506-PAZ021-071-NJZ106- NYZ176-178-MAZ106-OHZ011-021-055-MIZ076-KYZ091-ILZ014-INZ047- MNZ060-ONZ431-240600- ...Gateway Observations for Savannah International... CITY SKY/WX TMP DP RH WIND PRES REMARKS Savannah Arpt FAIR 63 63 100 S5 30.31F Atlanta FAIR 66 59 78 SE6 30.26S Charlotte FAIR 61 55 81 CALM 30.28F Dallas DFW CLOUDY 47 45 93 NW6 30.02F Houston Bush CLOUDY 72 70 93 SE8 30.03F Wash National CLOUDY 48 48 100 S5 30.25F FOG Wash Dulles CLOUDY 47 47 100 S5 30.23F FOG Baltimore DRZL/FOG 43 43 100 CALM 30.24F VSB 1/2 Philadelphia CLOUDY 44 43 96 SW13 30.23S Newark CLOUDY 41 40 96 SW10 30.18F FOG Laguardia MOCLDY 44 40 85 W12 30.16F J F K CLOUDY 40 40 100 SW9 30.18F WCI 34 Boston CLOUDY 37 36 96 SW13 30.07F WCI 29 Pittsburg CLOUDY 59 54 83 W8 30.16S Akron CLOUDY 51 46 83 NW5 30.18S Cleveland CLOUDY 47 44 90 NW9 30.23S Cincinnati CLOUDY 52 51 97 CALM 30.18F Columbus MOCLDY 52 52 99 N8 30.19R Detroit CLOUDY 41 35 79 NW13 30.23R Chicago O`Hare CLOUDY 34 28 79 CALM 30.26S Minneapolis FAIR 17 14 88 W5 30.29F WCI 10 Indianapolis CLOUDY 44 42 93 N10 30.21R Toronto Canada CLOUDY 41 37 87 W23G29 30.13R $$

USA.gov is the U.S. government's official web portal to all federal, state and local government web resources and services.